Time,TemperatureF,DewpointF,PressureIn,WindDirection,WindDirectionDegrees,WindSpeedMPH,WindSpeedGustMPH,Humidity,HourlyPrecipIn,Conditions,Clouds,dailyrainin,SoftwareType,DateUTC
2013-03-13 00:14:00,58.9,57.0,30.03,WNW,282,1.0,-999.0,92,-99.99,,,0.00,weatherlink.com 1.10,2013-03-13 04:14:00,
2013-03-13 00:28:00,58.7,56.0,30.03,WNW,290,3.0,-999.0,92,-99.99,,,0.00,weatherlink.com 1.10,2013-03-13 04:28:00,
2013-03-13 00:43:00,58.4,56.0,30.03,ENE,65,5.0,-999.0,92,-99.99,,,0.00,weatherlink.com 1.10,2013-03-13 04:43:00,
2013-03-13 00:58:00,58.2,56.0,30.03,WNW,290,2.0,-999.0,91,-99.99,,,0.00,weatherlink.com 1.10,2013-03-13 04:58:00,
2013-03-13 01:13:00,58.0,55.0,30.03,WNW,292,2.0,-999.0,91,-99.99,,,0.00,weatherlink.com 1.10,2013-03-13 05:13:00,
2013-03-13 01:29:00,57.7,55.0,30.03,WNW,301,0.0,-999.0,90,-99.99,,,0.00,weatherlink.com 1.10,2013-03-13 05:29:00,
2013-03-13 01:43:00,57.5,54.0,30.03,NE,42,0.0,-999.0,89,-99.99,,,0.00,weatherlink.com 1.10,2013-03-13 05:43:00,
2013-03-13 01:58:00,57.1,53.0,30.03,NNE,30,2.0,-999.0,87,-99.99,,,0.00,weatherlink.com 1.10,2013-03-13 05:58:00,
2013-03-13 02:13:00,57.0,53.0,30.04,NW,316,1.0,-999.0,86,-99.99,,,0.00,weatherlink.com 1.10,2013-03-13 06:13:00,
2013-03-13 02:28:00,56.8,52.0,30.04,NW,316,0.0,-999.0,85,-99.99,,,0.00,weatherlink.com 1.10,2013-03-13 06:28:00,
2013-03-13 02:43:00,56.5,51.0,30.03,NW,309,0.0,-999.0,83,-99.99,,,0.00,weatherlink.com 1.10,2013-03-13 06:43:00,
2013-03-13 02:58:00,56.3,51.0,30.04,NW,306,3.0,-999.0,83,-99.99,,,0.00,weatherlink.com 1.10,2013-03-13 06:58:00,
2013-03-13 03:13:00,56.2,51.0,30.02,WNW,284,0.0,-999.0,83,-99.99,,,0.00,weatherlink.com 1.10,2013-03-13 07:13:00,
2013-03-13 03:28:00,55.9,51.0,30.03,WNW,294,2.0,-999.0,82,-99.99,,,0.00,weatherlink.com 1.10,2013-03-13 07:28:00,
2013-03-13 03:43:00,55.7,50.0,30.02,WNW,295,3.0,-999.0,81,-99.99,,,0.00,weatherlink.com 1.10,2013-03-13 07:43:00,
2013-03-13 03:58:00,55.5,49.0,30.03,WNW,295,0.0,-999.0,79,-99.99,,,0.00,weatherlink.com 1.10,2013-03-13 07:58:00,
2013-03-13 04:13:00,55.2,49.0,30.03,WNW,295,0.0,-999.0,79,-99.99,,,0.00,weatherlink.com 1.10,2013-03-13 08:13:00,
2013-03-13 04:30:00,55.1,48.0,30.03,WNW,296,0.0,-999.0,78,-99.99,,,0.00,weatherlink.com 1.10,2013-03-13 08:30:00,
2013-03-13 04:43:00,55.0,48.0,30.03,NNW,328,4.0,-999.0,78,-99.99,,,0.00,weatherlink.com 1.10,2013-03-13 08:43:00,
2013-03-13 04:58:00,55.0,48.0,30.04,NW,311,2.0,-999.0,77,-99.99,,,0.00,weatherlink.com 1.10,2013-03-13 08:58:00,
2013-03-13 05:13:00,55.0,47.0,30.04,West,279,0.0,-999.0,75,-99.99,,,0.00,weatherlink.com 1.10,2013-03-13 09:13:00,
2013-03-13 05:29:00,54.8,46.0,30.04,NNW,339,1.0,-999.0,73,-99.99,,,0.00,weatherlink.com 1.10,2013-03-13 09:29:00,
2013-03-13 05:43:00,54.6,46.0,30.05,North,5,2.0,-999.0,73,-99.99,,,0.00,weatherlink.com 1.10,2013-03-13 09:43:00,
2013-03-13 05:58:00,54.4,46.0,30.05,NE,44,0.0,-999.0,73,-99.99,,,0.00,weatherlink.com 1.10,2013-03-13 09:58:00,
2013-03-13 06:13:00,54.1,45.0,30.06,North,5,1.0,-999.0,72,-99.99,,,0.00,weatherlink.com 1.10,2013-03-13 10:13:00,
2013-03-13 06:28:00,54.0,45.0,30.07,NNE,22,2.0,-999.0,72,-99.99,,,0.00,weatherlink.com 1.10,2013-03-13 10:28:00,
2013-03-13 06:43:00,53.8,45.0,30.07,NNE,13,2.0,-999.0,72,-99.99,,,0.00,weatherlink.com 1.10,2013-03-13 10:43:00,
2013-03-13 06:58:00,53.8,45.0,30.08,NE,37,0.0,-999.0,71,-99.99,,,0.00,weatherlink.com 1.10,2013-03-13 10:58:00,
2013-03-13 07:13:00,53.5,45.0,30.09,NNE,31,0.0,-999.0,72,-99.99,,,0.00,weatherlink.com 1.10,2013-03-13 11:13:00,
2013-03-13 07:28:00,53.5,45.0,30.10,NNE,17,2.0,-999.0,72,-99.99,,,0.00,weatherlink.com 1.10,2013-03-13 11:28:00,
2013-03-13 07:43:00,53.4,45.0,30.11,NNE,17,2.0,-999.0,72,-99.99,,,0.00,weatherlink.com 1.10,2013-03-13 11:43:00,
2013-03-13 07:58:00,53.3,44.0,30.11,NNW,344,6.0,-999.0,72,-99.99,,,0.00,weatherlink.com 1.10,2013-03-13 11:58:00,
2013-03-13 08:13:00,53.4,45.0,30.11,North,5,0.0,-999.0,72,-99.99,,,0.00,weatherlink.com 1.10,2013-03-13 12:13:00,
2013-03-13 08:28:00,53.7,44.0,30.12,NE,38,4.0,-999.0,71,-99.99,,,0.00,weatherlink.com 1.10,2013-03-13 12:28:00,
2013-03-13 08:43:00,53.9,44.0,30.13,ENE,69,7.0,-999.0,69,-99.99,,,0.00,weatherlink.com 1.10,2013-03-13 12:43:00,
2013-03-13 08:58:00,54.2,44.0,30.13,North,355,3.0,-999.0,68,-99.99,,,0.00,weatherlink.com 1.10,2013-03-13 12:58:00,
2013-03-13 09:13:00,54.9,44.0,30.13,NNE,26,7.0,-999.0,66,-99.99,,,0.00,weatherlink.com 1.10,2013-03-13 13:13:00,
2013-03-13 09:28:00,55.5,43.0,30.14,NNW,348,7.0,-999.0,63,-99.99,,,0.00,weatherlink.com 1.10,2013-03-13 13:28:00,
2013-03-13 09:45:00,56.4,43.0,30.14,North,351,5.0,-999.0,61,-99.99,,,0.00,weatherlink.com 1.10,2013-03-13 13:45:00,
2013-03-13 09:58:00,57.1,42.0,30.14,NNE,28,9.0,-999.0,58,-99.99,,,0.00,weatherlink.com 1.10,2013-03-13 13:58:00,
2013-03-13 10:13:00,57.8,42.0,30.14,ENE,59,8.0,-999.0,57,-99.99,,,0.00,weatherlink.com 1.10,2013-03-13 14:13:00,
2013-03-13 10:29:00,58.4,42.0,30.15,NE,41,8.0,-999.0,55,-99.99,,,0.00,weatherlink.com 1.10,2013-03-13 14:29:00,
2013-03-13 10:43:00,59.7,43.0,30.15,NE,46,2.0,-999.0,54,-99.99,,,0.00,weatherlink.com 1.10,2013-03-13 14:43:00,
2013-03-13 10:58:00,61.3,42.0,30.15,North,5,5.0,-999.0,49,-99.99,,,0.00,weatherlink.com 1.10,2013-03-13 14:58:00,
2013-03-13 11:13:00,62.7,41.0,30.15,NE,35,2.0,-999.0,46,-99.99,,,0.00,weatherlink.com 1.10,2013-03-13 15:13:00,
2013-03-13 11:28:00,63.7,39.0,30.15,NE,36,5.0,-999.0,41,-99.99,,,0.00,weatherlink.com 1.10,2013-03-13 15:28:00,
2013-03-13 11:43:00,65.0,38.0,30.15,ENE,69,12.0,-999.0,37,-99.99,,,0.00,weatherlink.com 1.10,2013-03-13 15:43:00,
2013-03-13 11:58:00,65.6,36.0,30.15,NE,36,2.0,-999.0,34,-99.99,,,0.00,weatherlink.com 1.10,2013-03-13 15:58:00,
2013-03-13 12:13:00,67.3,36.0,30.15,NE,37,2.0,-999.0,31,-99.99,,,0.00,weatherlink.com 1.10,2013-03-13 16:13:00,
2013-03-13 12:28:00,67.9,36.0,30.16,WNW,300,2.0,-999.0,31,-99.99,,,0.00,weatherlink.com 1.10,2013-03-13 16:28:00,
2013-03-13 12:43:00,68.2,35.0,30.16,North,5,9.0,-999.0,29,-99.99,,,0.00,weatherlink.com 1.10,2013-03-13 16:43:00,
2013-03-13 12:58:00,68.3,36.0,30.15,NE,39,6.0,-999.0,31,-99.99,,,0.00,weatherlink.com 1.10,2013-03-13 16:58:00,
2013-03-13 13:13:00,68.9,36.0,30.15,NW,325,1.0,-999.0,30,-99.99,,,0.00,weatherlink.com 1.10,2013-03-13 17:13:00,
2013-03-13 13:28:00,69.0,37.0,30.14,NNE,19,4.0,-999.0,31,-99.99,,,0.00,weatherlink.com 1.10,2013-03-13 17:28:00,
2013-03-13 13:43:00,70.5,39.0,30.14,NE,36,5.0,-999.0,32,-99.99,,,0.00,weatherlink.com 1.10,2013-03-13 17:43:00,
2013-03-13 13:58:00,70.3,37.0,30.13,NNE,32,11.0,-999.0,30,-99.99,,,0.00,weatherlink.com 1.10,2013-03-13 17:58:00,
2013-03-13 14:29:00,71.9,35.0,30.12,WNW,296,11.0,-999.0,26,-99.99,,,0.00,weatherlink.com 1.10,2013-03-13 18:29:00,
2013-03-13 14:43:00,71.4,34.0,30.11,NE,56,7.0,-999.0,25,-99.99,,,0.00,weatherlink.com 1.10,2013-03-13 18:43:00,
2013-03-13 14:58:00,71.2,34.0,30.10,North,355,10.0,-999.0,25,-99.99,,,0.00,weatherlink.com 1.10,2013-03-13 18:58:00,
2013-03-13 15:13:00,71.5,36.0,30.10,East,96,7.0,-999.0,27,-99.99,,,0.00,weatherlink.com 1.10,2013-03-13 19:13:00,
2013-03-13 15:43:00,72.9,36.0,30.09,ENE,57,4.0,-999.0,26,-99.99,,,0.00,weatherlink.com 1.10,2013-03-13 19:43:00,
2013-03-13 15:58:00,72.7,37.0,30.08,NNW,346,0.0,-999.0,27,-99.99,,,0.00,weatherlink.com 1.10,2013-03-13 19:58:00,
2013-03-13 16:13:00,73.3,35.0,30.07,ESE,106,2.0,-999.0,25,-99.99,,,0.00,weatherlink.com 1.10,2013-03-13 20:13:00,
2013-03-13 16:28:00,74.3,34.0,30.06,SW,227,5.0,-999.0,23,-99.99,,,0.00,weatherlink.com 1.10,2013-03-13 20:28:00,
2013-03-13 16:43:00,74.5,35.0,30.06,WNW,298,2.0,-999.0,24,-99.99,,,0.00,weatherlink.com 1.10,2013-03-13 20:43:00,
2013-03-13 16:58:00,74.2,34.0,30.06,North,355,5.0,-999.0,23,-99.99,,,0.00,weatherlink.com 1.10,2013-03-13 20:58:00,
2013-03-13 17:13:00,74.2,34.0,30.06,WNW,301,6.0,-999.0,23,-99.99,,,0.00,weatherlink.com 1.10,2013-03-13 21:13:00,
2013-03-13 17:28:00,74.2,32.0,30.06,WSW,247,5.0,-999.0,21,-99.99,,,0.00,weatherlink.com 1.10,2013-03-13 21:28:00,
2013-03-13 17:43:00,74.0,33.0,30.05,NW,306,2.0,-999.0,22,-99.99,,,0.00,weatherlink.com 1.10,2013-03-13 21:43:00,
2013-03-13 17:58:00,74.3,33.0,30.06,NNW,328,7.0,-999.0,22,-99.99,,,0.00,weatherlink.com 1.10,2013-03-13 21:58:00,
2013-03-13 18:13:00,73.7,30.0,30.06,NW,311,9.0,-999.0,20,-99.99,,,0.00,weatherlink.com 1.10,2013-03-13 22:13:00,
2013-03-13 18:28:00,73.5,31.0,30.06,WNW,286,4.0,-999.0,21,-99.99,,,0.00,weatherlink.com 1.10,2013-03-13 22:28:00,
2013-03-13 18:43:00,73.3,31.0,30.06,NNW,338,4.0,-999.0,21,-99.99,,,0.00,weatherlink.com 1.10,2013-03-13 22:43:00,
2013-03-13 18:59:00,72.9,31.0,30.06,NE,51,3.0,-999.0,21,-99.99,,,0.00,weatherlink.com 1.10,2013-03-13 22:59:00,
2013-03-13 19:13:00,71.9,32.0,30.06,NNW,337,5.0,-999.0,23,-99.99,,,0.00,weatherlink.com 1.10,2013-03-13 23:13:00,
2013-03-13 19:28:00,70.9,32.0,30.07,NE,55,0.0,-999.0,24,-99.99,,,0.00,weatherlink.com 1.10,2013-03-13 23:28:00,
2013-03-13 19:43:00,70.0,33.0,30.06,NE,55,0.0,-999.0,25,-99.99,,,0.00,weatherlink.com 1.10,2013-03-13 23:43:00,
2013-03-13 19:58:00,69.2,32.0,30.07,NE,55,0.0,-999.0,25,-99.99,,,0.00,weatherlink.com 1.10,2013-03-13 23:58:00,
2013-03-13 20:13:00,68.2,33.0,30.07,NE,55,0.0,-999.0,27,-99.99,,,0.00,weatherlink.com 1.10,2013-03-14 00:13:00,
2013-03-13 20:28:00,67.2,35.0,30.08,ENE,66,4.0,-999.0,30,-99.99,,,0.00,weatherlink.com 1.10,2013-03-14 00:28:00,
2013-03-13 20:43:00,64.2,42.0,30.10,ENE,73,0.0,-999.0,44,-99.99,,,0.00,weatherlink.com 1.10,2013-03-14 00:43:00,
2013-03-13 20:58:00,62.8,43.0,30.12,East,99,0.0,-999.0,48,-99.99,,,0.00,weatherlink.com 1.10,2013-03-14 00:58:00,
2013-03-13 21:13:00,62.3,43.0,30.13,ENE,76,2.0,-999.0,49,-99.99,,,0.00,weatherlink.com 1.10,2013-03-14 01:13:00,
2013-03-13 21:28:00,61.9,43.0,30.13,ENE,76,1.0,-999.0,50,-99.99,,,0.00,weatherlink.com 1.10,2013-03-14 01:28:00,
2013-03-13 21:44:00,61.2,43.0,30.14,ENE,76,0.0,-999.0,51,-99.99,,,0.00,weatherlink.com 1.10,2013-03-14 01:44:00,
2013-03-13 21:58:00,61.1,43.0,30.14,ENE,76,0.0,-999.0,52,-99.99,,,0.00,weatherlink.com 1.10,2013-03-14 01:58:00,
2013-03-13 22:13:00,61.3,43.0,30.15,NNW,347,0.0,-999.0,52,-99.99,,,0.00,weatherlink.com 1.10,2013-03-14 02:13:00,
2013-03-13 22:28:00,61.1,43.0,30.15,WNW,288,0.0,-999.0,51,-99.99,,,0.00,weatherlink.com 1.10,2013-03-14 02:28:00,
2013-03-13 22:45:00,61.0,43.0,30.16,West,263,6.0,-999.0,51,-99.99,,,0.00,weatherlink.com 1.10,2013-03-14 02:45:00,
2013-03-13 22:59:00,60.6,43.0,30.16,NNW,348,4.0,-999.0,53,-99.99,,,0.00,weatherlink.com 1.10,2013-03-14 02:59:00,
2013-03-13 23:13:00,60.5,44.0,30.16,WNW,294,0.0,-999.0,54,-99.99,,,0.00,weatherlink.com 1.10,2013-03-14 03:13:00,
2013-03-13 23:28:00,60.0,44.0,30.17,NW,310,1.0,-999.0,55,-99.99,,,0.00,weatherlink.com 1.10,2013-03-14 03:28:00,
2013-03-13 23:43:00,59.4,43.0,30.17,West,280,0.0,-999.0,56,-99.99,,,0.00,weatherlink.com 1.10,2013-03-14 03:43:00,
2013-03-13 23:58:00,58.9,43.0,30.17,WNW,282,0.0,-999.0,57,-99.99,,,0.00,weatherlink.com 1.10,2013-03-14 03:58:00,